CAPE
65 107 122 9 0 0 103 97 1 3 104 149 98 16 52 127 191 315 199 92 326 377 574 798 917 1027 1086 1132 1159 1114 1154 1178
1 96 106 23 0 0 37 1 0 51 110 54 5 6 14 47 186 188 196 207 149 346 604 881 977 1085 1138 1192 1201 1192 1189 1202
0 10 8 36 0 0 0 0 0 0 32 103 33 23 31 53 62 136 287 144 424 419 508 787 1073 1163 1209 1234 1271 1262 1227 1262
0 0 0 5 0 0 0 0 3 0 0 13 26 14 66 79 79 45 243 401 516 599 733 794 1014 1204 1243 1287 1364 1401 1413 1401
0 0 0 0 6 0 0 0 8 4 0 11 52 57 3 51 80 105 121 445 679 769 918 945 972 1099 1285 1408 1489 1477 1489 1529
0 0 0 0 0 0 0 0 0 0 0 10 35 40 0 14 797 1297 1285 928 815 908 1054 1102 1085 1123 1156 1381 1545 1644 1649 1642
0 0 0 0 0 0 0 0 1 0 14 1 41 23 7 1109 1433 1646 1775 1824 1903 2007 2051 1629 1236 1384 1411 1355 1385 1522 1546 1689
0 0 0 0 14 1 10 0 0 0 27 0 422 1249 1290 1312 1380 1646 1972 2146 2183 2107 2270 2430 2304 2177 1123 1478 1576 1644 1632 1668
0 0 0 3 71 136 41 4 1 5 2 727 1182 1204 1195 1231 1240 1375 1705 1986 2168 2077 2072 2423 2590 2449 1915 1458 1268 1777 1866 1883
0 0 0 38 243 181 81 135 149 153 123 754 678 895 1002 1048 1059 1092 1178 1415 1773 2012 1983 1962 2296 2564 2560 1886 1468 1742 1930 1977
0 0 162 426 370 295 322 291 346 489 574 629 660 787 677 922 890 819 879 1001 1032 1242 1626 1786 1867 2166 2336 2465 2644 2332 2148 2002
12 164 227 174 329 329 488 398 671 639 623 630 518 356 356 609 625 698 680 671 637 596 690 978 1244 1812 2066 2141 2342 2475 2861 2669
19 42 38 124 305 335 407 286 836 943 940 852 537 260 315 616 600 609 639 623 585 496 234 16 319 721 1091 1632 1985 2077 2340 2850
16 2 3 177 332 310 358 545 1006 919 773 811 735 410 375 498 557 558 693 735 733 533 5 0 0 0 0 65 476 1033 1350 1968
4 0 0 226 316 384 227 531 811 832 917 894 786 566 290 133 88 100 189 138 19 0 0 0 0 0 0 0 0 206 196 636
22 4 4 120 209 201 199 237 352 305 351 418 246 160 56 10 0 1 0 0 0 0 0 0 0 0 0 0 0 0 62 61
9 1 31 108 166 200 154 149 156 150 137 109 73 57 48 17 0 0 0 0 0 0 0 0 0 0 0 0 0 0 0 15
47 71 94 147 170 169 143 135 77 61 107 149 128 104 74 42 15 0 0 0 0 0 0 0 0 0 0 0 0 0 0 0
48 43 48 50 145 71 43 39 49 87 87 20 5 0 0 0 0 0 0 0 0 0 0 0 0 0 0 0 0 0 0 0
CIN
-187 -119 -108 -215 -0 -0 -174 -151 -209 -126 -185 -159 -205 -288 -236 -173 -113 -48 -32 -99 -346 -326 -410 -382 -357 -413 -196 -155 -131 -134 -140 -113
-8 -178 -143 -176 -0 -0 -175 -121 -0 -223 -197 -209 -253 -253 -250 -241 -96 -85 -49 -14 -33 -191 -292 -523 -474 -420 -364 -291 -215 -194 -236 -227
-0 -116 -206 -158 -0 -0 -0 -0 -0 -0 -183 -181 -225 -206 -179 -161 -156 -111 -55 -68 -25 -60 -56 -566 -463 -432 -396 -360 -301 -269 -274 -239
-0 -0 -0 -187 -0 -0 -0 -0 -177 -0 -0 -191 -175 -178 -150 -130 -127 -114 -39 -16 -29 -94 -140 -127 -513 -476 -432 -371 -364 -341 -328 -258
-0 -0 -0 -0 -175 -0 -0 -0 -151 -173 -0 -174 -135 -213 -230 -112 -110 -207 -67 -11 -28 -135 -227 -199 -181 -469 -467 -472 -411 -345 -370 -320
-0 -0 -0 -0 -0 -0 -0 -0 -0 -0 -0 -71 -42 -77 -29 -75 -201 -299 -404 -261 -16 -42 -75 -94 -124 -145 -165 -462 -424 -405 -361 -330
-0 -0 -0 -0 -0 -0 -0 -0 -12 -0 -20 -6 -24 -19 -98 -210 -179 -227 -258 -303 -309 -280 -311 -284 -68 -101 -118 -121 -354 -399 -367 -406
-0 -0 -0 -2 -242 -4 -318 -0 -0 -0 -10 -2 -469 -327 -251 -173 -136 -138 -195 -226 -220 -241 -288 -311 -361 -332 -218 -129 -96 -413 -322 -451
-0 -0 -0 -62 -163 -180 -284 -106 -5 -20 -111 -387 -313 -278 -224 -155 -121 -117 -150 -153 -150 -163 -192 -257 -284 -258 -302 -159 -407 -443 -342 -293
-0 -0 -0 -139 -191 -180 -211 -323 -299 -330 -358 -335 -288 -258 -201 -161 -123 -112 -111 -130 -143 -126 -116 -146 -164 -181 -205 -167 -194 -415 -330 -262
-2 -0 -183 -147 -136 -95 -77 -244 -452 -478 -393 -306 -244 -214 -175 -170 -120 -110 -105 -98 -116 -146 -138 -92 -111 -123 -118 -137 -189 -163 -109 -114
-24 -142 -97 -135 -88 -147 -91 -171 -291 -331 -313 -255 -214 -174 -172 -169 -133 -116 -98 -90 -63 -51 -130 -100 -127 -102 -86 -87 -82 -99 -160 -179
-50 -118 -109 -132 -78 -113 -33 -62 -191 -193 -186 -179 -166 -95 -156 -153 -120 -124 -97 -71 -55 -47 -33 -98 -101 -94 -94 -72 -44 -33 -49 -91
-163 -54 -54 -115 -80 -71 -37 -147 -126 -134 -149 -137 -105 -100 -76 -111 -101 -96 -69 -53 -37 -35 -3 -0 -0 -0 -0 -30 -249 -56 -49 -39
-17 -0 -0 -89 -67 -64 -36 -114 -84 -75 -96 -71 -63 -53 -70 -185 -34 -30 -41 -28 -2 -1 -0 -0 -0 -0 -0 -0 -0 -598 -585 -63
-10 -38 -83 -95 -45 -25 -29 -116 -56 -46 -40 -40 -43 -57 -57 -69 -0 -30 -0 -0 -0 -0 -0 -0 -0 -0 -0 -0 -0 -0 -684 -656
-10 -8 -117 -88 -48 -27 -25 -39 -73 -84 -119 -61 -50 -54 -53 -37 -0 -0 -0 -0 -0 -0 -0 -0 -0 -0 -0 -0 -0 -0 -0 -467
-14 -19 -65 -48 -52 -38 -28 -29 -43 -34 -139 -117 -102 -87 -77 -43 -47 -8 -0 -0 -0 -0 -0 -0 -0 -0 -0 -0 -0 -0 -0 -0
-39 -40 -53 -36 -24 -76 -76 -48 -84 -77 -134 -57 -136 -0 -0 -0 -0 -0 -0 -0 -0 -0 -0 -0 -0 -0 -0 -0 -0 -0 -0 -0
Wind_Speed
nan 24 29 nan nan nan 31 nan nan nan 16 10 nan nan nan 7 4 3 3 nan 9 22 24 29 22 22 21 22 20 18 19 17
nan nan 32 nan nan nan nan nan nan nan 19 nan nan nan nan nan 8 6 5 11 7 12 23 29 26 20 19 19 21 20 19 18
nan nan nan nan nan nan nan nan nan nan nan 20 nan nan nan nan nan 10 7 4 6 12 23 27 22 17 18 19 20 18 19 17
nan nan nan nan nan nan nan nan nan nan nan nan nan nan nan nan nan nan 6 7 11 14 19 21 12 12 14 16 20 21 20 21
nan nan nan nan nan nan nan nan nan nan nan nan nan nan nan nan nan 12 15 20 25 16 12 8 7 8 12 16 18 19 22 25
nan nan nan nan nan nan nan nan nan nan nan nan nan nan nan nan 19 13 19 27 23 18 14 8 3 6 15 14 15 17 22 24
nan nan nan nan nan nan nan nan nan nan nan nan nan nan nan 14 14 21 30 33 24 25 19 12 7 9 21 24 26 26 25 25
nan nan nan nan nan nan nan nan nan nan nan nan 16 26 20 22 27 18 24 31 27 25 28 18 12 10 13 21 25 26 24 21
nan nan nan nan nan 30 nan nan nan nan nan 20 29 35 15 14 22 22 20 28 32 31 29 23 17 14 14 20 29 32 26 21
nan nan nan nan 37 46 nan 26 27 19 19 26 33 28 19 16 15 18 20 21 24 23 20 19 18 20 20 24 30 31 28 23
nan nan 24 20 23 37 32 28 28 25 28 27 23 30 23 21 18 16 21 20 19 18 17 19 20 21 26 28 27 28 24 25
nan 34 22 24 28 29 29 36 27 25 29 22 19 26 17 19 21 27 28 26 24 25 27 25 22 24 30 30 27 24 19 19
nan nan nan 28 24 22 31 27 34 31 32 34 41 32 20 24 32 33 33 34 31 31 30 nan 26 31 34 31 29 21 20 23
nan nan nan 33 29 31 29 34 36 35 31 36 34 35 36 39 40 36 38 39 38 34 nan nan nan nan nan nan 26 24 23 24
nan nan nan 24 33 34 35 32 28 30 29 32 37 39 42 61 nan 28 33 35 nan nan nan nan nan nan nan nan nan 24 24 25
nan nan nan 40 44 40 36 39 39 35 34 35 37 39 nan nan nan nan nan nan nan nan nan nan nan nan nan nan nan nan nan nan
nan nan nan 42 39 36 37 35 34 36 40 40 nan nan nan nan nan nan nan nan nan nan nan nan nan nan nan nan nan nan nan nan
nan nan nan 35 36 40 44 42 nan nan 37 43 46 44 nan nan nan nan nan nan nan nan nan nan nan nan nan nan nan nan nan nan
nan nan nan nan 45 nan nan nan nan nan nan nan nan nan nan nan nan nan nan nan nan nan nan nan nan nan nan nan nan nan nan nan
Wind_Direction
nan 247 262 nan nan nan 268 nan nan nan 271 251 nan nan nan 244 272 20 159 nan 322 326 331 325 327 341 348 347 346 357 11 4
nan nan 250 nan nan nan nan nan nan nan 267 nan nan nan nan nan 243 255 189 175 242 299 317 325 312 320 329 335 344 346 354 349
nan nan nan nan nan nan nan nan nan nan nan 309 nan nan nan nan nan 195 146 186 265 267 291 309 303 323 336 338 340 346 353 349
nan nan nan nan nan nan nan nan nan nan nan nan nan nan nan nan nan nan 191 205 268 261 289 296 306 352 353 347 358 358 349 354
nan nan nan nan nan nan nan nan nan nan nan nan nan nan nan nan nan 188 189 235 247 245 275 268 277 323 339 349 353 345 341 345
nan nan nan nan nan nan nan nan nan nan nan nan nan nan nan nan 225 257 222 223 227 228 196 188 159 14 0 347 340 334 338 337
nan nan nan nan nan nan nan nan nan nan nan nan nan nan nan 246 237 236 216 218 203 221 218 213 199 325 340 346 346 341 340 337
nan nan nan nan nan nan nan nan nan nan nan nan 248 270 260 241 239 230 220 212 214 234 212 209 234 297 348 349 337 338 339 336
nan nan nan nan nan 236 nan nan nan nan nan 254 258 266 243 241 234 229 223 219 225 232 245 227 249 282 316 336 334 336 331 326
nan nan nan nan 232 245 nan 236 231 236 261 261 273 265 248 252 249 229 209 215 231 227 222 246 272 283 294 307 326 330 324 324
nan nan 226 219 237 237 233 220 219 233 270 285 280 259 236 234 253 238 245 244 243 247 248 261 267 283 292 291 299 306 309 319
nan 245 245 233 247 247 254 233 224 241 238 245 262 249 244 228 251 252 240 242 245 249 256 263 269 283 287 289 285 281 291 299
nan nan nan 257 231 243 260 262 245 244 250 257 261 270 254 238 242 248 244 245 247 251 257 nan 264 274 283 290 284 283 278 283
nan nan nan 233 245 262 269 256 249 244 246 255 262 258 246 243 226 225 242 250 252 260 nan nan nan nan nan nan 288 281 274 273
nan nan nan 238 255 258 257 253 240 247 243 252 250 253 256 271 nan 218 245 250 nan nan nan nan nan nan nan nan nan 278 272 265
nan nan nan 244 250 246 244 250 251 250 250 255 258 257 nan nan nan nan nan nan nan nan nan nan nan nan nan nan nan nan nan nan
nan nan nan 241 240 242 242 242 246 247 250 252 nan nan nan nan nan nan nan nan nan nan nan nan nan nan nan nan nan nan nan nan
nan nan nan 240 240 244 242 244 nan nan 242 249 254 256 nan nan nan nan nan nan nan nan nan nan nan nan nan nan nan nan nan nan
nan nan nan nan 238 nan nan nan nan nan nan nan nan nan nan nan nan nan nan nan nan nan nan nan nan nan nan nan nan nan nan nan